Simultaneous Nadir Overpasses (SNOs) Predictions

Prediction of SNOs between FY3D and TERRA Satellite Orbit:

Table of predicted SNOs for the next 14.0 days since TLE Epoch: 8/26/2023
Index Date (FY3D) Time (FY3D) Lat,Lon (FY3D) SZA (FY3D ) Date (TERRA) Time (TERRA) Lat,Lon (TERRA) SZA (TERRA ) Distance(km) Time Diff (sec)
1 08/28/2023 00:38:52 -73.97, -9.71 115.99 08/28/2023 00:39:17 -73.95, -9.75 116.01 2.32 25
2 08/28/2023 01:29:37 73.88, 157.82 63.94 08/28/2023 01:28:40 73.89, 157.76 63.94 1.94 57
3 08/30/2023 12:42:57 73.99, -10.73 64.92 08/30/2023 12:43:10 73.99, -10.68 64.92 1.69 13
4 08/30/2023 13:33:40 -73.90, 156.79 115.15 08/30/2023 13:32:34 -73.91, 156.82 115.15 1.37 66
5 09/01/2023 23:56:25 74.48, 179.68 66.32 09/01/2023 23:57:33 74.43,-178.33 66.26 59.70 68
6 09/02/2023 00:47:00 -74.01, -11.76 114.16 09/02/2023 00:47:04 -73.99, -11.66 114.17 3.40 4
7 09/02/2023 01:37:41 73.73, 156.22 65.59 09/02/2023 01:36:29 73.82, 155.61 65.67 21.23 72
8 09/04/2023 12:00:20 -74.17, 179.55 113.09 09/04/2023 12:01:32 -74.10, 179.93 113.16 13.46 72
9 09/04/2023 12:51:03 74.00, -12.72 66.76 09/04/2023 12:50:56 73.98, -12.70 66.73 2.63 7
10 09/04/2023 13:41:36 -73.41, 156.01 113.82 09/04/2023 13:40:28 -73.49, 153.92 113.75 66.89 68
11 09/07/2023 00:04:22 74.07, 178.81 67.74 09/07/2023 00:05:25 74.06, 178.83 67.73 1.52 63
12 09/07/2023 00:55:05 -73.97, -13.62 112.35 09/07/2023 00:54:49 -74.00, -13.66 112.33 2.82 16



Historial Predications of SNOs between FY3D and TERRA
